User: anonymous   Login
Location: ?nandapuram
(16.5396°N, 81.1430°E)
Time: 02:36:28
(UTC+00:00)
Language:

Cosmos 1953 - Orbit

View from above orbital plane
View from above orbital plane
View from above satellite
View from above satellite

Ground track
Ground track

The orbit is defined by the following mean orbital elements,

1 19210U          26158.86199764 +.00000000 +00000-0 +25990-3 0 00006
2 19210  82.5076  67.4365 0011326 155.4063 204.7720 15.29847324    08
Epoch (UTC): 07 June 2026 20:41:16
Eccentricity: 0.0011326
inclination: 82.5076°
perigee height: 469 km
apogee height: 484 km
right ascension of ascending node: 67.4365°
argument of perigee: 155.4063°
revolutions per day: 15.29847324
mean anomaly at epoch: 204.7720°

The dashed part of the orbit path shows where the satellite is in the earth's shadow,  

DLR